Lexington, NE

11:55 AM CDT on August 27, 2016 (GMT -0500)
Kelly

Weather History for KLXN - September, 2013

Change the Weather History Date:

Thursday, September 26, 2013

  Actual Average Record
Temperature  
Mean Temperature 76 °F -  
Max Temperature 91 °F 69 °F 91 °F (2013)
Min Temperature 60 °F 43 °F 37 °F (2000)
Cooling Degree Days 10    
Growing Degree Days 26 (Base 50)    
Moisture  
Dew Point 54 °F    
Average Humidity 51    
Maximum Humidity 75    
Minimum Humidity 22    
Precipitation  
Precipitation 0.00 in - - ()
Sea Level Pressure  
Sea Level Pressure 29.64 in    
Wind  
Wind Speed 16 mph (SSE)    
Max Wind Speed 23 mph    
Max Gust Speed 29 mph    
Visibility 10 miles    
Events      
Averages and records for this station are not official NWS values.
T = Trace of Precipitation, MM = Missing Value Source: NWS Daily Summary

Daily Weather History Graph

Daily Weather History Graph

Search for Another Location

Airport or City:

Trip Planner

Search our weather history database for the weather conditions in past years. The results will help you decide how hot, cold, wet, or windy it might be!

Date:

Astronomy

Sep. 26, 2013 Rise Set
Actual Time 7:30 AM CDT 7:29 PM CDT
Civil Twilight 7:03 AM CDT 7:56 PM CDT
Nautical Twilight 6:31 AM CDT 8:28 PM CDT
Astronomical Twilight 5:59 AM CDT 9:00 PM CDT
Moon No Moon Rise 2:26 PM CDT (9/26)
Length of Visible Light 12h 52m
Length of Day
11h 58m
Waning Gibbous, 54% of the Moon is Illuminated
Sep 26
Waning Gibbous
Sep 26
Last Quarter
Oct 4
New
Oct 11
First Quarter
Oct 18
Full

Hourly Weather History & Observations

Time (CDT) Temp. Heat Index Dew Point Humidity Pressure Visibility Wind Dir Wind Speed Gust Speed Precip Events Conditions
12:15 AM 68.2 °F - 52.7 °F 58% 29.62 in 10.0 mi SSE 16.1 mph 27.6 mph N/A   Clear
12:35 AM 67.8 °F - 52.9 °F 59% 29.61 in 10.0 mi SSE 21.9 mph 27.6 mph N/A   Clear
12:55 AM 67.8 °F - 52.9 °F 59% 29.61 in 10.0 mi SE 18.4 mph 25.3 mph N/A   Clear
1:15 AM 67.3 °F - 52.7 °F 59% 29.60 in 10.0 mi SSE 18.4 mph 26.5 mph N/A   Clear
1:35 AM 67.1 °F - 52.7 °F 60% 29.60 in 10.0 mi SSE 20.7 mph 27.6 mph N/A   Clear
1:55 AM 67.3 °F - 52.7 °F 59% 29.60 in 10.0 mi SSE 23.0 mph 28.8 mph N/A   Clear
2:15 AM 67.1 °F - 52.7 °F 60% 29.60 in 10.0 mi SE 20.7 mph 26.5 mph N/A   Clear
2:35 AM 66.0 °F - 52.9 °F 63% 29.60 in 10.0 mi SSE 19.6 mph 24.2 mph N/A   Clear
2:55 AM 65.7 °F - 52.9 °F 63% 29.59 in 10.0 mi SSE 21.9 mph 26.5 mph N/A   Clear
3:15 AM 65.5 °F - 53.1 °F 64% 29.59 in 10.0 mi SSE 18.4 mph 26.5 mph N/A   Clear
3:35 AM 65.5 °F - 52.9 °F 64% 29.59 in 10.0 mi SSE 17.3 mph 26.5 mph N/A   Clear
3:55 AM 65.3 °F - 52.9 °F 64% 29.60 in 10.0 mi SSE 18.4 mph 26.5 mph N/A   Clear
4:15 AM 64.8 °F - 52.9 °F 65% 29.60 in 10.0 mi SSE 17.3 mph 23.0 mph N/A   Clear
4:35 AM 64.4 °F - 53.1 °F 67% 29.60 in 10.0 mi SSE 17.3 mph 26.5 mph N/A   Clear
4:55 AM 64.4 °F - 53.1 °F 67% 29.61 in 10.0 mi SSE 16.1 mph 24.2 mph N/A   Clear
5:15 AM 63.3 °F - 52.9 °F 69% 29.61 in 10.0 mi SSE 12.7 mph - N/A   Clear
5:35 AM 62.8 °F - 53.1 °F 71% 29.62 in 10.0 mi SSE 13.8 mph - N/A   Clear
5:55 AM 62.4 °F - 52.9 °F 71% 29.62 in 10.0 mi SSE 10.4 mph 18.4 mph N/A   Clear
6:15 AM 61.7 °F - 52.9 °F 73% 29.63 in 10.0 mi SE 9.2 mph - N/A   Clear
6:35 AM 61.5 °F - 52.7 °F 73% 29.63 in 10.0 mi SE 9.2 mph - N/A   Clear
6:55 AM 61.0 °F - 52.7 °F 74% 29.63 in 10.0 mi ESE 8.1 mph - N/A   Clear
7:15 AM 60.6 °F - 52.7 °F 75% 29.64 in 10.0 mi SE 8.1 mph - N/A   Clear
7:35 AM 60.6 °F - 52.7 °F 75% 29.65 in 10.0 mi SE 9.2 mph - N/A   Clear
7:55 AM 61.0 °F - 52.9 °F 75% 29.66 in 10.0 mi SE 10.4 mph - N/A   Clear
8:15 AM 61.7 °F - 53.2 °F 74% 29.66 in 10.0 mi SSE 11.5 mph - N/A   Clear
8:35 AM 62.8 °F - 53.6 °F 72% 29.66 in 10.0 mi SSE 12.7 mph - N/A   Clear
8:55 AM 63.9 °F - 54.0 °F 70% 29.66 in 10.0 mi SSE 11.5 mph - N/A   Clear
9:15 AM 65.7 °F - 54.3 °F 67% 29.66 in 10.0 mi SSE 15.0 mph - N/A   Clear
9:35 AM 67.3 °F - 54.5 °F 63% 29.67 in 10.0 mi SSE 13.8 mph - N/A   Clear
9:55 AM 69.3 °F - 55.2 °F 61% 29.67 in 10.0 mi South 16.1 mph - N/A   Clear
10:15 AM 70.7 °F - 55.0 °F 58% 29.67 in 10.0 mi South 17.3 mph 21.9 mph N/A   Clear
10:35 AM 72.1 °F - 54.9 °F 54% 29.67 in 10.0 mi South 17.3 mph 20.7 mph N/A   Clear
10:55 AM 73.4 °F - 55.0 °F 52% 29.68 in 10.0 mi South 16.1 mph 19.6 mph N/A   Clear
11:15 AM 74.1 °F - 54.3 °F 50% 29.68 in 10.0 mi SSW 16.1 mph - N/A   Clear
11:35 AM 75.4 °F - 54.7 °F 48% 29.68 in 10.0 mi South 13.8 mph - N/A   Clear
11:55 AM 76.3 °F - 54.5 °F 47% 29.68 in 10.0 mi South 12.7 mph 17.3 mph N/A   Clear
12:15 PM 77.2 °F - 55.4 °F 47% 29.68 in 10.0 mi SSE 11.5 mph - N/A   Clear
12:35 PM 78.4 °F - 55.0 °F 44% 29.68 in 10.0 mi South 9.2 mph 18.4 mph N/A   Clear
12:55 PM 79.7 °F - 54.7 °F 42% 29.68 in 10.0 mi South 15.0 mph - N/A   Clear
1:15 PM 81.3 °F 80.9 °F 54.5 °F 40% 29.67 in 10.0 mi SSE 15.0 mph - N/A   Clear
1:35 PM 82.4 °F 81.6 °F 54.3 °F 38% 29.67 in 10.0 mi South 12.7 mph 20.7 mph N/A   Clear
1:55 PM 83.1 °F 82.1 °F 54.3 °F 37% 29.67 in 10.0 mi SSE 12.7 mph 21.9 mph N/A   Clear
2:15 PM 83.5 °F 82.4 °F 54.5 °F 37% 29.67 in 10.0 mi South 12.7 mph 19.6 mph N/A   Clear
2:35 PM 84.7 °F 83.3 °F 54.5 °F 35% 29.66 in 10.0 mi SSE 12.7 mph 19.6 mph N/A   Clear
2:55 PM 85.6 °F 84.0 °F 54.1 °F 34% 29.66 in 10.0 mi South 17.3 mph 21.9 mph N/A   Clear
3:15 PM 87.1 °F 85.1 °F 53.8 °F 32% 29.65 in 10.0 mi South 13.8 mph 27.6 mph N/A   Clear
3:35 PM 87.8 °F 85.7 °F 53.6 °F 31% 29.64 in 10.0 mi South 20.7 mph 25.3 mph N/A   Clear
3:55 PM 88.2 °F - 51.8 °F 29% 29.64 in 10.0 mi South 18.4 mph 26.5 mph N/A   Clear
4:15 PM 89.6 °F - 51.6 °F 27% 29.63 in 10.0 mi South 19.6 mph 26.5 mph N/A   Clear
4:35 PM 89.8 °F - 51.1 °F 26% 29.63 in 10.0 mi South 16.1 mph - N/A   Clear
4:55 PM 90.5 °F - 51.4 °F 26% 29.62 in 10.0 mi SSE 17.3 mph 23.0 mph N/A   Clear
5:15 PM 90.9 °F - 48.4 °F 23% 29.62 in 10.0 mi South 19.6 mph 25.3 mph N/A   Clear
5:35 PM 90.7 °F - 49.1 °F 24% 29.62 in 10.0 mi South 17.3 mph 26.5 mph N/A   Clear
5:55 PM 91.0 °F - 46.9 °F 22% 29.62 in 10.0 mi South 17.3 mph 25.3 mph N/A   Clear
6:15 PM 89.8 °F - 51.1 °F 26% 29.62 in 10.0 mi South 18.4 mph 25.3 mph N/A   Clear
6:35 PM 88.7 °F - 52.3 °F 29% 29.62 in 10.0 mi SSE 17.3 mph 23.0 mph N/A   Clear
6:55 PM 86.7 °F 85.3 °F 55.8 °F 35% 29.63 in 10.0 mi SE 12.7 mph 18.4 mph N/A   Clear
7:15 PM 85.3 °F 84.1 °F 56.5 °F 37% 29.62 in 10.0 mi SE 9.2 mph - N/A   Clear
7:35 PM 82.9 °F 82.4 °F 57.2 °F 41% 29.62 in 10.0 mi SE 8.1 mph - N/A   Clear
7:55 PM 80.8 °F 81.0 °F 57.6 °F 45% 29.63 in 10.0 mi ESE 9.2 mph - N/A   Scattered Clouds
8:15 PM 79.5 °F - 57.9 °F 47% 29.63 in 10.0 mi ESE 8.1 mph - N/A   Clear
8:35 PM 78.3 °F - 58.1 °F 50% 29.64 in 10.0 mi ESE 8.1 mph - N/A   Clear
8:55 PM 77.5 °F - 58.1 °F 51% 29.64 in 10.0 mi SE 9.2 mph - N/A   Clear
9:15 PM 76.6 °F - 57.6 °F 52% 29.64 in 10.0 mi SE 9.2 mph - N/A   Clear
9:35 PM 75.9 °F - 57.6 °F 53% 29.64 in 10.0 mi SE 9.2 mph - N/A   Clear
9:55 PM 77.9 °F - 56.5 °F 48% 29.64 in 10.0 mi SE 13.8 mph - N/A   Clear
10:15 PM 78.3 °F - 55.6 °F 45% 29.64 in 10.0 mi SSE 17.3 mph 24.2 mph N/A   Clear
10:35 PM 78.3 °F - 55.4 °F 45% 29.65 in 10.0 mi SSE 18.4 mph 21.9 mph N/A   Clear
10:55 PM 77.5 °F - 55.4 °F 46% 29.66 in 10.0 mi SSE 18.4 mph 23.0 mph N/A   Clear
11:15 PM 76.8 °F - 55.4 °F 47% 29.66 in 10.0 mi SSE 18.4 mph - N/A   Clear
11:35 PM 77.2 °F - 55.6 °F 47% 29.66 in 10.0 mi SSE 17.3 mph - N/A   Clear
11:55 PM 77.0 °F - 55.6 °F 47% 29.67 in 10.0 mi SSE 18.4 mph 26.5 mph N/A   Clear